Location: Marse
(42.1502°N, 110.9866°W)
Time: 09:32:55
(UTC+00:00)

ITUPSAT 1 - Pass Details

Date: 03 July 2022
Orbit: 701 x 711 km, 98.6° (Epoch: 13 August)

Event Time Altitude Azimuth Distance (km) Brightness Sun altitude
Rises 04:13:00 0° 9° (N) 3,111 ? -10.8°
Reaches altitude 10° 04:15:18 10° 5° (N) 2,189 ? -11.1°
Maximum altitude 04:19:59 57° 288° (WNW) 838 ? -11.7°
Drops below altitude 10° 04:24:39 10° 210° (SSW) 2,179 ? -12.3°
Sets 04:26:56 0° 207° (SSW) 3,094 ? -12.6°
